Location: Gad�tanya
(48.0500°N, 20.8500°E)
Time: 03:07:24
(UTC+00:00)

Cosmos 1400 Rocket - Visible Passes

Search period start: 22 October 2020 00:00
Search period end: 01 November 2020 00:00
Orbit: 521 x 568 km, 81.2° (Epoch: 21 October)

Date Brightness Start Highest point End Pass type
(mag) Time Alt. Az. Time Alt. Az. Time Alt. Az.
22 Oct 4.0 03:52:14 10° N 03:56:05 44° ENE 03:59:52 10° SSE visible
22 Oct 4.6 16:16:54 10° ESE 16:18:59 14° E 16:21:04 10° NE visible
22 Oct 3.4 17:50:52 10° SSW 17:54:56 60° WNW 17:59:02 10° N visible
23 Oct 3.9 03:46:12 10° N 03:50:05 47° ENE 03:53:52 10° SSE visible
23 Oct 4.5 16:10:41 10° ESE 16:12:56 14° E 16:15:12 10° NE visible
23 Oct 3.5 17:44:53 10° SSW 17:48:56 56° WNW 17:52:59 10° N visible
24 Oct 3.7 03:40:10 10° N 03:44:04 50° ENE 03:47:53 10° SSE visible
24 Oct 4.5 16:04:29 10° ESE 16:06:54 15° E 16:09:18 10° NE visible
24 Oct 3.6 17:38:54 10° SSW 17:42:56 53° WNW 17:46:58 10° N visible
25 Oct 3.6 03:34:08 10° N 03:38:03 53° ENE 03:41:53 10° SSE visible
25 Oct 4.4 15:58:18 10° SE 16:00:51 16° E 16:03:25 10° NE visible
25 Oct 3.8 17:32:55 10° SSW 17:36:56 49° WNW 17:40:56 10° N visible
26 Oct 3.4 03:28:07 10° N 03:32:02 57° ENE 03:35:54 10° SSE visible
26 Oct 4.4 15:52:08 10° SE 15:54:49 17° E 15:57:30 10° NE visible
26 Oct 3.9 17:26:57 10° SSW 17:30:55 46° WNW 17:34:54 10° N visible
27 Oct 3.3 03:22:06 10° N 03:26:02 60° ENE 03:29:53 10° SSE visible
27 Oct 4.0 17:20:59 10° SSW 17:24:55 44° WNW 17:28:51 10° N visible
28 Oct 3.1 03:16:05 10° N 03:20:02 65° ENE 03:23:53 10° SSE visible
28 Oct 4.2 17:15:02 10° SW 17:18:56 41° WNW 17:22:49 10° N visible
29 Oct 3.0 03:10:03 10° N 03:14:00 69° ENE 03:17:53 10° SSE visible
29 Oct 4.3 17:09:04 10° SW 17:12:55 39° WNW 17:16:46 10° N visible
30 Oct 2.9 03:05:32 22° N 03:07:59 74° ENE 03:11:52 10° SSE visible
30 Oct 4.4 17:03:07 10° SW 17:06:55 37° WNW 17:10:43 10° N visible
31 Oct 2.9 03:02:20 70° SE 03:02:20 70° SE 03:05:51 10° SSE visible
31 Oct 4.5 16:57:10 10° SW 17:00:56 35° WNW 17:04:41 10° N visible
